Terminal Aerodrome Forecast
Issued by NWS Dodge City, KS

Home | Current Version | Previous Version | Graphics & Text | Print | Product List | Glossary Off
Versions: 1 2 3 4 5 6 7 8 9 10 11 12 13 14 15 16 17 18 19 20 21 22 23 24 25 26 27 28

000
FTUS43 KDDC 221120
TAFDDC
TAF
KDDC 221120Z 2212/2312 15007KT P6SM FEW300
     FM221700 18014G21KT P6SM FEW100 SCT300
     FM230200 17011KT P6SM VCTS SCT080CB BKN250
     FM230600 17012KT P6SM SCT300=

USA.gov is the U.S. government's official web portal to all federal, state and local government web resources and services.